Regional Weather Roundup
Issued by NWS

Home | Current Version | Previous Version | Graphics & Text | Print | Product List | Glossary Off
Versions: 1 2 3 4 5 6 7 8 9 10 11 12 13 14 15 16 17 18 19 20 21 22 23 24 25 26 27 28 29 30 31 32 33 34 35 36 37 38 39 40 41 42 43 44 45 46 47 48 49 50

000
ASUS43 KDMX 020207
RWRIA

WEATHER ROUNDUP FOR IOWA
NATIONAL WEATHER SERVICE DES MOINES IA
900 PM CDT WED OCT 01 2014

NOTE: "FAIR" INDICATES FEW OR NO CLOUDS BELOW 12,000 FEET WITH NO
SIGNIFICANT WEATHER AND/OR OBSTRUCTIONS TO VISIBILITY.

* - THESE STATIONS ARE NOT NWS STATIONS...THUS NOT UNDER NWS
QUALITY CONTROL.  THEY ALSO DO NOT REPORT WEATHER SUCH
AS PRECIPITATION OR FOG.

IAZ001>003-012>014-020>022-031>034-043>046-020300-
   NORTHWEST IOWA

CITY           SKY/WX    TMP DP  RH WIND       PRES   REMARKS
CARROLL *      PTCLDY    61  61 100 SE5       29.80R
CHEROKEE *     PTCLDY    61  60  97 CALM      29.79R
DENISON *      CLEAR     64  63  94 E6        29.78R
LE MARS *      CLOUDY    63  59  88 CALM      29.80R
ORANGE CITY *  PTCLDY    66  55  68 N5        29.80R
SHELDON *      CLOUDY    61  57  88 CALM      29.79R
SIOUX CITY     PTCLDY    64  60  87 N5        29.78R
SPENCER        MOCLDY    61  58  90 SE3       29.79R
STORM LAKE *   PTCLDY    64  59  82 S5        29.81R
$$

IAZ055>058-069>071-079>083-090>094-020300-
   SOUTHWEST IOWA

CITY           SKY/WX    TMP DP  RH WIND       PRES   REMARKS
ATLANTIC *     CLOUDY    64  64 100 CALM      29.79R
AUDUBON *      PTCLDY    61  55  82 CALM      29.82R HAZE
CLARINDA *     PTCLDY    68  66  94 CALM      29.80R
COUNCIL BLFS * PTCLDY    66  64  94 SE5       29.78R
CRESTON *      PTCLDY    61  61 100 E5        29.81R FOG
HARLAN  *      CLEAR     63  63 100 CALM      29.83R
LAMONI         PTCLDY    66  65  96 SE6       29.80S FOG
RED OAK *      PTCLDY    66  64  94 CALM      29.79R
SHENANDOAH *   PTCLDY    68  66  94 VRB5      29.78R
$$

IAZ047>049-059>061-072>074-084-020300-
   CENTRAL IOWA

CITY           SKY/WX    TMP DP  RH WIND       PRES   REMARKS
AMES           MOCLDY    64  63  96 SE3       29.81R
ANKENY *       FOG       61  61 100 CALM      29.80S VSB<1/4
CHARITON *     CLEAR     63  63 100 SE5       29.82R FOG
DES MOINES     PTCLDY    66  63  90 SE6       29.80R FOG
GRINNELL*      CLOUDY    64  63  94 SE3       29.83R
KNOXVILLE *    MOCLDY    64  63  94 SE3       29.80R
MARSHALLTOWN   CLOUDY    66  63  90 S5        29.82R
PELLA *        PTCLDY    65  63  92 CALM      29.82R
PERRY *        MOCLDY    64  63  94 CALM      29.81R FOG
$$

IAZ004>006-015-016-023>025-035-036-020300-
   NORTH CENTRAL IOWA

CITY           SKY/WX    TMP DP  RH WIND       PRES   REMARKS
ALGONA *       PTCLDY    64  63  94 SE6       29.80R
CLARION *      PTCLDY    61  61 100 SE6       29.81S
ESTHERVILLE    CLOUDY    61  59  93 SE7       29.79R
FORT DODGE *   PTCLDY    63  61  94 SE3       29.81R
MASON CITY     FOG       55  55 100 SE3       29.83R VSB 1/4
FOREST CITY *  CLEAR     57  57 100 E3        29.81S FOG
IOWA FALLS *   CLOUDY    63  60  91 SE5       29.83R
$$

IAZ007>011-017>019-026>030-037>042-050>054-066-020300-
   NORTHEAST IOWA

CITY           SKY/WX    TMP DP  RH WIND       PRES   REMARKS
CEDAR RAPIDS   CLOUDY    64  63  94 S8        29.82R
CHARLES CITY * CLOUDY    64  61  88 CALM      29.83R
CLINTON *      CLOUDY    63  57  82 CALM      29.88R
DECORAH *      CLOUDY    63  59  88 S6        29.82S
MONTICELLO *   CLOUDY    66  61  82 CALM      29.84R
OELWEIN *      CLOUDY    64  61  88 SE5       29.84R
WATERLOO       CLOUDY    66  61  84 SE7       29.82R
$$

IAZ064-065-067-068-078-020300-
   EAST CENTRAL IOWA

CITY           SKY/WX    TMP DP  RH WIND       PRES   REMARKS
IOWA CITY      CLOUDY    66  63  90 CALM      29.84R
MT. PLEASANT * MOCLDY    64  63  94 CALM      29.84R FOG
MUSCATINE *    CLOUDY    66  63  88 CALM      29.83S
QUAD CITIES    PTCLDY    60  58  92 CALM      29.84R FOG
$$

IAZ062-063-075>077-085>089-095>099-020300-
   SOUTHEAST IOWA

CITY           SKY/WX    TMP DP  RH WIND       PRES   REMARKS
BURLINGTON     LGT RAIN  68  65  90 SE14      29.82R
FAIRFIELD *    CLOUDY    64  63  94 SE5       29.83R
FORT MADISON * CLOUDY    68  64  88 SE9       29.84R
KEOKUK *       CLOUDY    66  64  94 S6        29.83R
OSKALOOSA *    CLOUDY    66  64  94 S7        29.82S
CENTERVILLE *  MOCLDY    64  64 100 CALM      29.83F
OTTUMWA        CLOUDY    66  63  90 S6        29.82R
WASHINGTON *   CLOUDY    64  64 100 CALM      29.83R
$$

ABBREVIATIONS USED IN REMARKS
   TC - TEMPERATURES IN CELSIUS
  WCI - WIND CHILL INDEX
   HX - HEAT INDEX
  VSB - VISIBILITY
$$




USA.gov is the U.S. government's official web portal to all federal, state and local government web resources and services.